Regional Weather Roundup
Issued by NWS Upton, NY

Current Version | Previous Version | Text Only | Print | Product List | Glossary Off
Versions: 1 2 3 4 5 6 7 8 9 10 11 12 13 14 15 16 17 18 19 20 21 22 23 24 25 26 27
000 ASUS41 KOKX 190609 RWROKX Regional Weather Roundup National Weather Service New York NY 100 AM EST FRI JAN 19 2018 Note: "FAIR" indicates few or no clouds below 12,000 feet with no significant weather and/or obstructions to visibility. NYZ071-072-176-178-NJZ106-104-190700- New York City Metro Area CITY SKY/WX TMP DP RH WIND PRES REMARKS Central Park FAIR 25 12 58 W6 30.06F WCI 18 Bronx Bot Gard N/A 27 12 54 NW8 30.06S WCI 18 Bronx Lehman C N/A 27 14 59 W7 N/A WCI 19 LaGuardia Arpt FAIR 26 13 57 W12 30.04F WCI 16 Queens College N/A 27 14 59 W7 N/A WCI 19 Kennedy Intl FAIR 26 13 57 W12 30.06F WCI 16 Breezy Point N/A N/A N/A N/A W6 N/A Brooklyn Coll N/A 28 14 54 NW7 N/A WCI 21 Staten Island N/A 25 14 63 W3 N/A Newark/Liberty FAIR 25 11 55 W6 30.06F WCI 18 Teterboro FAIR 23 12 62 VRB5 30.05F WCI 17 $$ NYZ177-179-078>081-190700- Long Island New York CITY SKY/WX TMP DP RH WIND PRES REMARKS Jones Beach N/A N/A N/A N/A NW10 N/A Wantagh N/A 27 14 59 W9 N/A WCI 17 Matinecock Pt N/A N/A N/A N/A W16 N/A Farmingdale FAIR 24 13 62 W5 30.03F WCI 18 MacArthur/ISP FAIR 22 15 75 W5 30.02F WCI 16 Shirley N/A N/A N/A N/A MISG 30.03F Mt Sinai Harb N/A N/A N/A N/A W3 N/A Westhampton FAIR 23 13 65 NW6 30.03F WCI 16 East Hampton FAIR 25 16 68 NW7 30.01S WCI 17 Southold N/A 28 18 64 NW13 N/A WCI 18 Montauk N/A 28 18 66 NW15G23 30.00F WCI 16 $$ NYZ052-065-067-190700- Hudson Valley CITY SKY/WX TMP DP RH WIND PRES REMARKS White Plains FAIR 21 12 68 W3 29.99F Larchmont Harb N/A N/A N/A N/A SW12 N/A Croton On Huds N/A N/A N/A N/A N2 N/A Somers N/A 18 12 79 CALM N/A Brewster N/A 14 12 92 CALM N/A Newburgh NOT AVBL Montgomery FAIR 11 6 81 W8 30.00F WCI -1 Otisville N/A 14 10 85 S3 N/A Warwick N/A 10 9 92 W1 N/A Suffern N/A 21 12 68 SW2 N/A Poughkeepsie FAIR 7 3 84 CALM 30.01F Albany CLOUDY 23 15 71 CALM 30.01F $$ NJZ001-105-106-008-010-013-015-019>022-104-190700- New Jersey CITY SKY/WX TMP DP RH WIND PRES REMARKS Newark/Liberty FAIR 25 11 55 W6 30.06F WCI 18 Teterboro FAIR 23 12 62 VRB5 30.05F WCI 17 Caldwell FAIR 15 12 88 CALM 30.05F Somerville FAIR 13 11 92 CALM 30.04F Linden FAIR 23 12 63 CALM 30.06F Perth Amboy N/A N/A N/A N/A W6 N/A Sussex FAIR 7 4 87 CALM 30.02F Andover NOT AVBL Trenton FAIR 21 13 71 SW3 30.06F Millville FAIR 17 14 88 CALM 30.09F Atlantic City FAIR 22 14 71 CALM 30.09F Wrightstown FAIR 21 13 72 SW5 30.04F WCI 14 Toms River FAIR 15 12 88 CALM 30.08F Belmar FAIR 21 13 71 SW6 30.07 WCI 13 $$ PAZ047>061-062-071-190700- Eastern Pennsylvania CITY SKY/WX TMP DP RH WIND PRES REMARKS Philadelphia FAIR 26 18 71 SW7 30.09F WCI 18 Allentown FAIR 13 7 77 CALM 30.03F Scranton FAIR 20 11 68 SW3 29.98F $$ CTZ002-004>006-009-010-012-RIZ004-006-007-MAZ004-011-015-190700- Southern New England In CT CITY SKY/WX TMP DP RH WIND PRES REMARKS Bradley Intl FAIR 19 13 77 W8 29.99F WCI 9 Hartford FAIR 24 15 68 NW6 30.01F WCI 17 Danbury FAIR 13 8 81 CALM 30.01F Wtrbury/Oxford FAIR 16 11 80 W5 29.98F WCI 9 Norwalk Harbor N/A N/A N/A N/A W7 N/A Bridgeport FAIR 22 13 68 NW3 30.03F Meriden FAIR 19 14 81 CALM 30.01F New Haven FAIR 23 13 65 NW3 30.01F Chester FAIR 21 14 73 W6G14 29.98S WCI 14 Groton FAIR 24 14 65 NW9 29.99F WCI 14 Willimantic FAIR 18 12 77 CALM 29.98F In RI CITY SKY/WX TMP DP RH WIND PRES REMARKS Providence FAIR 23 15 71 W9 29.96F WCI 13 Block Island FAIR 25 18 74 NW12G17 29.99S WCI 14 Westerly FAIR 24 15 68 VRB6 29.99F WCI 17 In MA CITY SKY/WX TMP DP RH WIND PRES REMARKS Boston FAIR 24 16 71 W10 29.93F WCI 14 Worcester FAIR 16 11 80 W15 29.88F WCI 1 Westfield MOCLDY 21 14 74 CALM 29.97F Provincetown CLOUDY 30 23 75 NW15 29.91F WCI 19 Nantucket CLOUDY 28 21 75 NW14 29.92S WCI 17 $$ ANZ330-335-338-340-345-350-353-355-190700- Coastal Marine Observations STATION/POSITION TIME SKY/WX TEMP WIND PRES VSBY WAVE AIR SEA DIR/SP/G HT/PER (UTC) (F) (DEG/KT/KT) (MB) (MI) (FT/S) NY Harb Entrance 0450 30 40 300/ 16/ 21 1018.0 3/ 4 20 S Fire Island 0450 31 42 320/ 19/ 25 1017.7 3/ 4 15 E Barnegat Li 0530 43 N/A 3/10 Hudson Canyon 0450 35 49 320/ 19/ 25 1016.9 6/ 6 Kings Point 0548 26 32 330/ 8/ 9 1018.3 Execution Rocks NOT AVBL Western LI Sound NOT AVBL Central LI Sound 0530 28 320/ 16/ 19 N/A 2 Robbins Reef 0548 26 310/ 5/ 6 1018.4 $$ >>>>>>>>>>>>>>>>>>>>>>>>>>>> KEY <<<<<<<<<<<<<<<<<<<<<<<<<<< > < > SKY/WX - Sky Condition/Present Weather < > TMP - Temperature in Fahrenheit < > DP - Dew Point in Fahrenheit < > RH - Relative Humidity in Percent < > WIND - Direction (from) and Speed in MPH < > PRES - Mean Sea Level Pressure (inches of Hg) < > WCI - Wind Chill Index < > VSB - Visibility in Miles < > HX - Heat Index < > TC - Temperature in Celsius < > VRB - Varibale Wind Direction < > < >>>>>>>>>>>>>>>>>>>>>>>>>>>> KEY <<<<<<<<<<<<<<<<<<<<<<<<<<<

USA.gov is the U.S. government's official web portal to all federal, state and local government web resources and services.